Погода в Цзинане

Китай     36°40′49″N   117°01′49″E
темп.,
°C
ветер,
м/с
пор.,
м/с
влажн.,
%
обл.,
%
осадки,
мм/ч
давл.,
гПа
погр.,
м
22 октября, пт
пт2223:00+12юз22430 0.0 102657
02:00+11зюз23480 0.0 102775
05:00+10сз13580 0.0 1028111
08:00+11с12510 0.0 1030196
11:00+15св34450 0.0 1030942
14:00+17ссв353023 0.0 10291602
17:00+15ссв343486 0.0 1029957
20:00+13всв24447 0.0 1030203
23 октября, сб
сб2323:00+11всв234827 0.0 1031108
02:00+11всв2248100 0.0 103061
05:00+10всв234977 0.0 103056
08:00+11всв12445 0.0 1031141
11:00+16ссз01275 0.0 1031861
14:00+18сз2222100 0.0 10281438
17:00+16ссз122956 0.0 1028567
20:00+14в123318 0.0 102980
24 октября, вс
вс2423:00+13ююз113577 0.0 102923
02:00+12ююз114262 0.0 102819
05:00+12ю1143100 0.0 102713
08:00+13ююз124187 0.0 1028129
11:00+17юз343349 0.0 10271162
14:00+19юз34325 0.0 10241621
17:00+17юз34402 0.0 10241038
20:00+16ю24452 0.0 1025136
25 октября, пн
пн2523:00+14ююз24480 0.0 102597
02:00+13ююз23520 0.0 102470
05:00+12ююз22571 0.0 102437
08:00+14ююз1355100 0.0 1025134
11:00+18юз4542100 0.0 1024900
14:00+19юз4539100 0.0 10211176
17:00+18ююз3546100 0.0 1021772
20:00+17ю2651100 0.0 1022301
26 октября, вт
вт2623:00+16ююз3852100 0.0 1021439
02:00+15ююз3857100 0.0 1020379
05:00+15ююз3960100 0.0 1019404
08:00+15юз4957100 0.0 1020524
11:00+18зюз575085 0.0 10201033
14:00+19зсз45492 0.0 10191295
17:00+18ссз35489 0.0 10191140
20:00+15с24670 0.0 1022177